Akron, CO

2:21 PM MDT on May 22, 2018 (GMT -0600)
Akron-Washington County

Weather History for KAKO - January, 2014

Change the Weather History Date:

Saturday, January 25, 2014

  Actual Average Record
Temperature  
Mean Temperature 44 °F 29 °F  
Max Temperature 57 °F 40 °F 72 °F (1946)
Min Temperature 30 °F 17 °F -9 °F (1949)
Degree Days  
Heating Degree Days 21    
Month to date heating degree days 871  
Cooling Degree Days 0    
Month to date cooling degree days 0  
Moisture  
Dew Point 21 °F    
Average Humidity 49    
Maximum Humidity 72    
Minimum Humidity 26    
Precipitation  
Precipitation 0.00 in 0.02 in 0.17 in (1980)
Month to date precipitation 0.11 0.23  
Year to date precipitation 0.11 0.23  
Snow  
Snow 0.00 in - - ()
Snow Depth -    
Sea Level Pressure  
Sea Level Pressure 30.02 in    
Wind  
Wind Speed 15 mph (WNW)    
Max Wind Speed 29 mph    
Max Gust Speed 36 mph    
Visibility 10 miles    
Events      
T = Trace of Precipitation, MM = Missing Value Source: NWS Daily Summary

Daily Weather History Graph

Daily Weather History Graph

Search for Another Location

Airport or City:

Astronomy

Jan. 25, 2014 Rise Set
Actual Time 7:07 AM MST 5:03 PM MST
Civil Twilight 6:38 AM MST 5:32 PM MST
Nautical Twilight 6:05 AM MST 6:05 PM MST
Astronomical Twilight 5:33 AM MST 6:37 PM MST
Moon 1:42 AM MST (1/25) 12:05 PM MST (1/25)
Length of Visible Light 10h 54m
Length of Day
9h 55m
Waning Crescent, 33% of the Moon is Illuminated
Jan 25
Waning Crescent
Jan 30
New
Feb 6
First Quarter
Feb 14
Full
Feb 22
Last Quarter

Hourly Weather History & Observations

Time (MST) Temp. Windchill Dew Point Humidity Pressure Visibility Wind Dir Wind Speed Gust Speed Precip Events Conditions
12:53 AM 43.0 °F 34.2 °F 19.0 °F 38% 30.12 in 10.0 mi NW 20.7 mph 29.9 mph N/A   Clear
1:53 AM 44.1 °F 34.6 °F 18.0 °F 35% 30.11 in 10.0 mi NW 26.5 mph 35.7 mph N/A   Clear
2:53 AM 43.0 °F 34.2 °F 17.1 °F 35% 30.11 in 10.0 mi WNW 20.7 mph 32.2 mph N/A   Clear
3:53 AM 39.0 °F 29.6 °F 17.1 °F 41% 30.11 in 10.0 mi WNW 18.4 mph - N/A   Clear
4:53 AM 30.9 °F 20.7 °F 19.0 °F 61% 30.16 in 10.0 mi West 13.8 mph - N/A   Clear
5:53 AM 32.0 °F 22.1 °F 18.0 °F 56% 30.16 in 10.0 mi WNW 13.8 mph - N/A   Clear
6:53 AM 30.0 °F 21.7 °F 17.1 °F 59% 30.16 in 10.0 mi West 9.2 mph - N/A   Clear
7:53 AM 36.0 °F 29.6 °F 17.1 °F 46% 30.16 in 10.0 mi NW 8.1 mph - N/A   Clear
8:53 AM 39.9 °F 33.9 °F 19.0 °F 43% 30.15 in 10.0 mi West 9.2 mph - N/A   Clear
9:53 AM 45.0 °F 38.9 °F 19.9 °F 37% 30.13 in 10.0 mi NW 12.7 mph - N/A   Clear
10:53 AM 48.9 °F - 21.0 °F 33% 30.10 in 10.0 mi North 12.7 mph - N/A   Clear
11:53 AM 51.1 °F - 21.0 °F 31% 30.03 in 10.0 mi North 13.8 mph - N/A   Clear
12:53 PM 53.1 °F - 21.0 °F 29% 29.98 in 10.0 mi North 10.4 mph - N/A   Clear
1:53 PM 55.9 °F - 21.9 °F 27% 29.92 in 10.0 mi NW 10.4 mph - N/A   Clear
2:53 PM 55.9 °F - 23.0 °F 28% 29.90 in 10.0 mi SW 6.9 mph - N/A   Clear
3:53 PM 54.0 °F - 24.1 °F 31% 29.91 in 10.0 mi SSW 12.7 mph - N/A   Clear
4:53 PM 48.0 °F - 25.0 °F 41% 29.94 in 10.0 mi SW 10.4 mph - N/A   Clear
5:53 PM 41.0 °F 34.7 °F 24.1 °F 51% 29.95 in 10.0 mi SW 10.4 mph - N/A   Clear
6:53 PM 41.0 °F 34.7 °F 23.0 °F 49% 29.94 in 10.0 mi SW 10.4 mph - N/A   Clear
7:53 PM 41.0 °F 34.3 °F 23.0 °F 49% 29.91 in 10.0 mi SSW 11.5 mph - N/A   Clear
8:53 PM 37.9 °F 30.9 °F 21.9 °F 53% 29.90 in 10.0 mi West 10.4 mph - N/A   Clear
9:53 PM 37.0 °F 28.9 °F 21.9 °F 54% 29.88 in 10.0 mi WNW 12.7 mph - N/A   Clear
10:53 PM 30.9 °F 21.7 °F 23.0 °F 72% 29.90 in 10.0 mi West 11.5 mph - N/A   Clear
11:53 PM 37.0 °F 30.4 °F 23.0 °F 57% 29.88 in 10.0 mi WNW 9.2 mph - N/A   Clear